Weather in Serednyaya

Russia / Kostroma Oblast     57°42′18″N   40°57′44″E
temp.,
°C
wind,
m/s
gust,
m/s
humid.,
%
clouds,
%
prec.,
mm/h
press.,
hPa
HPBL,
m
13 april, tue
tue1300:00+7se61493100 0.0 1032452
03:00+6se51195100 0.0 1030353
06:00+5se51196100 0.0 1030248
09:00+10sse51083100 0.0 1028306
12:00+16s61060100 0.0 1027624
15:00+18s6947100 0.0 10251299
18:00+15s4957100 0.0 1025198
21:00+11sse4117187 0.0 1025164
14 april, wed
wed1400:00+9sse41170100 0.0 1025148
03:00+8sse410745 0.0 1024154
06:00+7sse410786 0.0 1024159
09:00+13s5105874 0.0 1023361
12:00+16s694687 0.0 1022815
15:00+18s5838100 0.0 10201538
18:00+15s3554100 0.0 101971
21:00+11s366599 0.0 102087
15 april, thu
thu1500:00+9s346688 0.0 101960
03:00+8s2270100 0.0 101914
06:00+8ssw1172100 0.0 102010
09:00+12sse1157100 0.0 1020178
12:00+15nne0148100 0.0 1019544
15:00+16nne3248100 0.0 1019929
18:00+13nne6873100 0.0 1020430
21:00+8nne61084100 0.0 1021394
16 april, fri
fri1600:00+6ne5108698 0.0 1022379
03:00+5ne598798 0.0 1022485
06:00+5ne5987100 0.0 1023519
09:00+5ne5880100 0.0 1024549
12:00+9ne575511 0.0 10251072
15:00+11ne673781 0.0 10251485
18:00+10ne584461 0.0 1026746
21:00+5nne3106419 0.0 1028226
17 april, sat
sat1700:00+3nne39712 0.0 1029196
03:00+2nne39745 0.0 1031160
06:00+1nne512795 0.0 1032391
09:00+4ne69525 0.0 1034882
12:00+7ne68360 0.0 10341409
15:00+8ne68315 0.0 10351678
18:00+7ne473813 0.0 10351054
21:00+3ne345396 0.0 103767